Location: Bon Acre
(42.6442°N, 73.5758°W)
Time: 02:47:45
(UTC+00:00)

Cosmos 2369 - Visible Passes

Search period start: 17 March 2026 00:00
Search period end: 27 March 2026 00:00
Orbit: 840 x 853 km, 71.0° (Epoch: 16 March)

Date Brightness Start Highest point End Pass type
(mag) Time Alt. Az. Time Alt. Az. Time Alt. Az.
22 Mar 6.5 04:00:59 11° N 04:00:59 11° N 04:01:10 10° N visible
23 Mar 6.4 03:46:56 12° N 03:46:56 12° N 03:47:26 10° N visible
24 Mar 6.2 03:32:45 15° N 03:32:45 15° N 03:33:42 10° N visible
25 Mar 6.0 03:18:25 18° N 03:18:25 18° N 03:19:58 10° NNE visible
25 Mar 6.3 10:19:24 10° N 10:23:28 20° NE 10:27:30 10° E visible
26 Mar 5.6 03:03:49 24° N 03:03:49 24° N 03:06:14 10° NNE visible
26 Mar 6.3 10:05:41 10° N 10:09:41 19° NE 10:13:40 10° E visible
